User: anonymous   Login
Location: ?
(35.4554°N, 139.3092°E)
Time: 03:14:39
(UTC+00:00)
Language:

ERS-1 Rocket - Orbit

View from above orbital plane
View from above orbital plane
View from above satellite
View from above satellite

Ground track
Ground track

The orbit data is extracted from the following two-line orbital elements,

1 21610U 91050F   21169.21771954  .00000022  00000-0  20508-4 0  9993
2 21610  98.4229 239.9477 0002282 223.6985 201.2888 14.40952074570373
Epoch (UTC): 18 June 2021 05:13:30
Eccentricity: 0.0002282
inclination: 98.4229°
perigee height: 754 km
apogee height: 757 km
right ascension of ascending node: 239.9477°
argument of perigee: 223.6985°
revolutions per day: 14.40952074
mean anomaly at epoch: 201.2888°
orbit number at epoch: 57037

The dashed part of the orbit path shows where the satellite is in the earth's shadow,  

DLR